WESTFORD NEEDLES, 19109

Orbit data source: Space-Track

WESTFORD NEEDLES, 19109 is space debris in LEO originally from a launch on Thu, 09 May 1963 UTC launched from the Air Force Western Test Range (AFWTR). Debris objects in space refer to the collection of defunct objects orbiting the Earth. Examples of debris include non-operational satellites, rocket bodies, and fragments generated from explosions, collisions, or faulty payload assembly.

Loading next visibility...
Identifier
19109, 1963-014EJ
Orbit
LEO
Country
Flag of USUS
Related business
Manufacturer
Unknown
Mission
Spacecraft
Bus & Motor
Unknown
Mass
Unknown
Launch date (UTC)
1963-05-09 (63 years ago)
Launch vehicle
Unknown
Launch site
Air Force Western Test Range (AFWTR)
Object type
Payload
Rocket body
Debris
Shape & HBR
Unknown shape, 0.2 m
Radar Cross Section
Medium (>0.1 m² and <1 m²)

Expand to show TLE details & history
Last TLE update: 2 days ago

TLE from 2 days ago
0 WESTFORD NEEDLES
1 19109U 63014EJ  26249.41553280  .00000293  00000-0  53936-1 0  9996
2 19109  86.8544  58.7814 1301350  25.9109 340.1428  8.71732925465471
Epoch: 2026-09-06T09:58Z
TLE epoch observation values (Epoch: 2026-09-06T09:58:22.033Z)
Latitude
-0.00008°
Longitude
-76.32138°
Altitude
2,399.694 km
Speed
7.133 km/s
True Right ascension
03h 55m 07s
True Declination
0° 00' 00"
Sunlit
Object was in daylight at epoch
Visualization orbit readout
Latitude
Unknown
Longitude
Unknown
Altitude
Unknown
Speed
Unknown
Apparent Right ascension
Unknown
Apparent Declination
Unknown
Sunlit
N/A
Visualization observer readout
Local Sidereal Time
11:45:17
Azimuth
Unknown
Elevation
Unknown
Doppler factor
Unknown
Orbital elements
Apogee altitude
4,889.834 km
Perigee altitude
2,294.821 km
Semi-major axis
9,970.464 km
Eccentricity
0.13014
Inclination
86.8544°
RAAN
58.7814°
Arg. of periapsis
25.9109°
True anomaly
334.1814°
Mean anomaly
340.1428°
Eccentric anomaly
337.26069°
Mean motion
2.18007 °/min
Orbital period
165.13 mins
BSTAR
0.053936
Loading maneuver chart data...
Computing Atmospheric mass density...
Loading historical data...
Loading historical data...
Loading historical data...
Loading historical data...
Loading historical data...
Loading historical data...
Loading historical data...

Documentation

Showing up to 5 results
|